Regional Weather Roundup
Issued by NWS

Home | Current Version | Previous Version | Graphics & Text | Print | Product List | Glossary On
Versions: 1 2 3 4 5 6 7 8 9 10 11 12 13 14 15 16 17 18 19 20 21 22 23 24 25 26 27 28 29 30 31 32 33 34 35 36 37 38 39 40 41 42 43 44 45 46 47 48 49 50
000
ASUS43 KBIS 221010
RWRND

NORTH DAKOTA REGIONAL WEATHER ROUNDUP
NATIONAL WEATHER SERVICE BISMARCK ND
400 AM CST WED FEB 22 2017

NOTE: "FAIR" INDICATES FEW OR NO CLOUDS BELOW 12,000 FEET WITH NO
SIGNIFICANT WEATHER AND/OR OBSTRUCTIONS TO VISIBILITY.


NDZ001>003-009>011-017-221100-
NORTHWEST NORTH DAKOTA

CITY           SKY/WX    TMP DP  RH WIND       PRES   REMARKS
WILLISTON      LGT SNOW  33  32  96 NE15      29.74R FOG
MINOT          LGT SNOW  34  31  88 N15       29.71R FOG
$$

NDZ018>021-031>035-040>046-221100-
SOUTHWEST NORTH DAKOTA

CITY           SKY/WX    TMP DP  RH WIND       PRES   REMARKS
BISMARCK       FAIR      32  31  96 NE5       29.67R
DICKINSON      CLOUDY    34  32  92 N9        29.65F FOG
GARRISON         N/A     33  31  92 N7        29.70R
HETTINGER ARPT LGT RAIN  38  35  89 NW12      29.66R
$$

NDZ004>008-012>016-024-026-027-054-221100-
NORTHEAST NORTH DAKOTA

CITY           SKY/WX    TMP DP  RH WIND       PRES   REMARKS
GRAND FORKS    MIX PCPN  32  28  85 N9        29.68F FOG
GRND FRKS AFB  DRIZZLE   31  31  99 N7        29.68F FOG
DEVILS LAKE    MIX PCPN  32  32 100 NE8       29.66F FOG
$$

NDZ022-023-025-028>030-036>039-047>053-221100-
SOUTHEAST NORTH DAKOTA

CITY           SKY/WX    TMP DP  RH WIND       PRES   REMARKS
FARGO          FOG       34  34 100 N9        29.64F VSB 1/4
JAMESTOWN      MOCLDY    34  32  92 N8        29.64S
$$




USA.gov is the U.S. government's official web portal to all federal, state and local government web resources and services.